Home   Weather   Cluj-Napoca   Past weeks

Flag for Romania Past Weather in Cluj-Napoca, Romania — Yesterday and Last 2 Weeks

Now
70 °F

Thunderstorms. Passing clouds.


Feels Like: 70 °F
Forecast: 66 / 89 °F
Wind: 6 mph from Northeast

Location: Cluj Airport-Napoca

Current Time: Jul 24, 2017 at 1:48:24 am

Latest Report: Jul 24, 2017 at 1:00 am


Visibility: N/A

Pressure: 29.92 "Hg

Humidity: 83%

Dew Point: 64 °F

Location of Cluj-NapocaLocation

Past Weather in Cluj-Napoca — Graph

°F

Cluj-Napoca Temperature Yesterday

Maximum temperature yesterday: 90 °F (at 2:30 pm)
Minimum temperature yesterday: 63 °F (at 4:30 am)
Average temperature yesterday: 77 °F

High & Low Weather Summary for the Past Weeks

 TemperatureHumidityPressure
High91 °F (Jul 22, 3:30 pm)100% (Jul 9, 2:30 am)30.21 "Hg (Jul 9, 2:30 am)
Low50 °F (Jul 17, 6:00 am)25% (Jul 18, 7:00 pm)29.86 "Hg (Jul 13, 9:30 am)
Average71 °F61%30.01 "Hg
* Reported Jul 9 12:00 am — Jul 24 12:30 am, Cluj-Napoca. Weather by CustomWeather, © 2017

Note: Actual official high and low records may vary slightly from our data, if they occured in-between our weather recording intervals... More about our weather records

Advertising

Cluj-Napoca Weather History for the Previous 24 Hours

Scroll right to see more
 ConditionsComfort  
Time TempWeatherWind HumidityBarometerVisibility
12:30 am
Mon, Jul 24
72 °FThunderstorms. Passing clouds.7 mph78%29.92 "HgN/A
12:00 am72 °FThunderstorms. Partly cloudy.9 mph83%29.95 "HgN/A
11:00 pm
Sun, Jul 23
75 °FThunderstorms. Partly cloudy.8 mph69%29.92 "HgN/A
10:30 pm75 °FThunderstorms. Passing clouds.8 mph61%29.92 "HgN/A
10:00 pm77 °FPassing clouds.No wind57%29.92 "HgN/A
9:30 pm77 °FThunderstorms. Passing clouds.2 mph54%29.89 "HgN/A
9:00 pm81 °FScattered clouds.3 mph51%29.89 "HgN/A
8:30 pm82 °FScattered clouds.3 mph45%29.92 "HgN/A
8:00 pm84 °FPassing clouds.6 mph43%29.89 "HgN/A
7:30 pm88 °FPassing clouds.8 mph38%29.89 "HgN/A
7:00 pm90 °FPassing clouds.7 mph33%29.89 "HgN/A
6:30 pm90 °FPassing clouds.2 mph33%29.89 "HgN/A
5:30 pm86 °FPassing clouds.7 mph40%29.92 "HgN/A
5:00 pm86 °FPassing clouds.7 mph40%29.92 "HgN/A
4:30 pm86 °FPassing clouds.8 mph40%29.92 "HgN/A
4:00 pm86 °FPassing clouds.8 mph40%29.92 "HgN/A
3:30 pm88 °FPassing clouds.5 mph33%29.95 "HgN/A
2:30 pm90 °FPassing clouds.3 mph31%29.95 "HgN/A
1:30 pm88 °FPassing clouds.7 mph35%29.95 "HgN/A
1:00 pm88 °FPassing clouds.6 mph38%29.95 "HgN/A
12:30 pm88 °FSunny.7 mph38%29.95 "Hg10 mi
12:00 pm84 °FSunny.9 mph45%29.98 "Hg10 mi
11:30 am84 °FSunny.6 mph45%29.98 "Hg10 mi
11:00 am81 °FSunny.5 mph51%29.98 "Hg10 mi
10:30 am79 °FSunny.6 mph51%29.98 "Hg10 mi
10:00 am77 °FSunny.3 mph54%30.01 "Hg10 mi
9:30 am75 °FSunny.2 mph57%30.01 "Hg10 mi
8:30 am70 °FSunny.2 mph69%30.01 "Hg10 mi
8:00 am68 °FSunny.1 mph73%30.01 "Hg10 mi
7:30 am66 °FSunny.2 mph78%30.01 "Hg10 mi
7:00 am64 °FSunny.2 mph83%30.01 "Hg10 mi
6:30 am63 °FSunny.No wind88%30.01 "Hg10 mi
5:30 am63 °FClear.2 mph83%30.01 "Hg10 mi
4:30 am63 °FClear.1 mph83%29.98 "Hg10 mi
4:00 am64 °FClear.1 mph78%29.98 "Hg10 mi
3:30 am64 °FClear.5 mph83%30.01 "Hg10 mi
3:00 am66 °FClear.2 mph73%30.01 "Hg10 mi
2:30 am64 °FPassing clouds.3 mph78%30.01 "HgN/A
2:00 am66 °FClear.No wind78%30.01 "Hg10 mi
1:30 am66 °FClear.No wind78%30.01 "Hg10 mi
1:00 am66 °FPassing clouds.5 mph78%30.01 "HgN/A
Weather by CustomWeather, © 2017

See weather overviewHow to use our weather pages